This is the latest recevied weather packets stored in our database for station/object VK5KX. If no packets are shown the sender has not sent any weather packets the latest 10 day(s).
| Time | Temp. | Humidity | Pressure | Rain* | Wind** | Luminosity | Snow |
|---|---|---|---|---|---|---|---|
| 1777644059 | 25° C | 35% | 1011.9 hPa | 0 mm | - | - | - |
| 1777643156 | 25° C | 35% | 1012.2 hPa | 0 mm | - | - | - |
| 1777642243 | 25° C | 35% | 1012.4 hPa | 0 mm | - | - | - |
| 1777641347 | 25° C | 35% | 1012.5 hPa | 0 mm | - | - | - |
| 1777640445 | 25.56° C | 35% | 1012.6 hPa | 0 mm | - | - | - |
| 1777639540 | 25° C | 36% | 1012.7 hPa | 0 mm | - | - | - |
| 1777638641 | 25° C | 38% | 1012.9 hPa | 0 mm | - | - | - |
| 1777637736 | 25° C | 38% | 1013.1 hPa | 0 mm | - | - | - |
| 1777636834 | 25° C | 38% | 1013.3 hPa | 0 mm | - | - | - |
| 1777635936 | 25.56° C | 38% | 1013.3 hPa | 0 mm | - | - | - |
| 1777635036 | 25.56° C | 37% | 1013.5 hPa | 0 mm | - | - | - |
| 1777634131 | 25.56° C | 37% | 1013.6 hPa | 0 mm | - | - | - |
| 1777633231 | 25.56° C | 37% | 1013.6 hPa | 0 mm | - | - | - |
| 1777632333 | 25.56° C | 37% | 1013.9 hPa | 0 mm | - | - | - |
| 1777631435 | 25.56° C | 37% | 1014 hPa | 0 mm | - | - | - |
| 1777630529 | 25.56° C | 37% | 1014.1 hPa | 0 mm | - | - | - |
| 1777629663 | 26.11° C | 36% | 1014.1 hPa | 0 mm | - | - | - |
| 1777628729 | 26.11° C | 35% | 1014.3 hPa | 0 mm | - | - | - |
| 1777627828 | 26.11° C | 35% | 1014.2 hPa | 0 mm | - | - | - |
| 1777626926 | 26.67° C | 35% | 1014.3 hPa | 0 mm | - | - | - |
| 1777626026 | 26.67° C | 35% | 1014.1 hPa | 0 mm | - | - | - |
| 1777625128 | 26.67° C | 34% | 1014.1 hPa | 0 mm | - | - | - |
| 1777624229 | 26.67° C | 34% | 1014 hPa | 0 mm | - | - | - |
| 1777623324 | 27.22° C | 34% | 1013.9 hPa | 0 mm | - | - | - |
| 1777622425 | 27.22° C | 33% | 1013.7 hPa | 0 mm | - | - | - |
* Rain latest hour (hover to see other rain measurements)
** Current wind speed in m/s (hover to see current wind gust speed)